Location: La Sioule Rivi�re
(46.3664°N, 3.3197°E)
Time: 12:55:48
(UTC+00:00)

Cosmos 2263 Rocket - Pass Details

Date: 29 October 2020
Orbit: 822 x 850 km, 71.0° (Epoch: 23 November)

Event Time Altitude Azimuth Distance (km) Brightness Sun altitude
Rises 20:21:15 0° 326° (NW) 3,423 6.0 -38.9°
Reaches altitude 10° 20:23:54 10° 317° (NW) 2,484 5.2 -39.3°
Enters shadow 20:26:47 26° 294° (WNW) 1,637 4.1 -39.7°
